Temperature
19 20 20 21 21 20 18 18 17 18 17 18 17 16 18 19 19 19 19 19 18 17 17 16 15 14 13 12 12 11 11 10 10 10 9 9 9 9 9 9 9 8 8 8
21 21 21 21 21 21 20 19 18 19 18 17 17 18 18 18 19 19 19 19 18 17 16 15 14 13 13 12 11 11 10 10 10 10 9 9 9 9 9 9 8 8 8 8
19 20 21 21 22 22 22 20 19 19 19 18 17 16 18 19 19 20 19 19 18 17 16 15 14 13 12 12 11 11 10 10 10 9 9 9 9 9 9 8 8 8 8 8
17 21 22 20 20 21 21 21 19 19 18 16 17 20 20 21 20 20 19 19 18 17 16 15 14 13 12 12 11 11 10 10 10 9 9 9 9 9 8 8 8 8 8 8
16 19 20 20 21 20 21 21 19 18 18 17 17 18 19 21 20 20 19 18 17 16 15 14 14 13 12 12 11 11 10 10 9 9 9 9 9 9 8 8 8 8 8 8
16 19 19 20 21 21 21 20 19 18 16 16 16 16 17 21 20 19 19 18 17 16 15 14 14 13 12 12 11 11 10 10 9 9 9 9 8 8 8 8 8 8 8 8
16 18 18 19 20 21 21 19 22 21 20 18 17 19 21 21 20 20 19 18 17 16 15 14 13 13 12 12 11 11 10 10 10 9 9 9 9 8 8 8 8 8 8 8
15 17 19 20 20 19 20 23 23 23 22 21 22 22 21 21 20 19 19 18 17 16 15 14 13 13 12 12 11 11 10 10 10 9 9 9 9 8 8 8 8 8 8 8
16 18 20 21 21 23 23 23 24 24 24 23 22 22 21 21 20 19 19 18 17 16 15 14 14 13 13 12 11 11 10 10 10 9 9 9 9 8 8 8 8 8 8 7
16 17 20 22 23 24 24 24 24 24 24 23 22 22 21 21 20 20 19 18 17 16 15 15 14 13 13 12 11 11 10 10 10 9 9 9 9 9 8 8 8 8 7 7
16 17 19 23 23 24 24 24 24 24 23 23 22 22 22 21 21 20 19 18 17 16 16 15 14 13 13 12 11 11 10 10 10 9 9 9 9 9 9 8 8 7 7 7
17 19 17 20 22 22 22 23 23 23 23 22 22 22 21 21 21 20 19 18 17 17 16 15 14 14 13 12 11 11 11 10 10 10 9 9 9 9 9 9 8 8 7 7
19 19 18 18 19 20 21 22 22 22 22 22 21 21 21 20 20 19 19 18 17 17 16 15 14 14 13 12 12 11 11 10 10 9 9 9 9 9 9 9 9 8 8 8
17 17 16 16 16 18 20 20 21 20 20 20 20 20 20 20 19 19 18 18 17 16 16 15 14 14 13 12 12 11 11 10 10 9 9 9 9 9 9 8 8 8 8 8
14 15 14 15 16 17 18 18 19 18 19 19 19 19 19 19 19 18 18 17 16 16 15 15 14 14 13 12 12 11 11 10 10 9 9 9 9 9 9 9 8 8 8 8
14 14 14 14 15 15 16 16 16 16 17 17 17 18 18 18 18 17 17 17 16 16 15 15 14 14 13 12 12 11 11 10 9 9 9 9 9 9 9 9 8 8 8 8
13 13 13 13 13 14 14 14 14 15 15 16 16 16 16 16 16 16 16 16 16 15 15 14 14 13 12 12 12 11 11 10 10 9 9 9 9 9 9 9 8 8 8 8
12 12 12 12 13 13 13 14 14 14 14 15 15 15 15 15 15 15 15 15 15 15 15 14 14 13 12 12 11 11 10 10 10 9 9 9 9 9 9 9 9 8 8 8
12 12 12 12 12 13 13 13 13 13 14 14 14 14 14 14 14 14 14 14 14 14 14 14 13 13 12 12 11 11 10 10 9 9 9 9 9 9 9 9 9 8 8 8
12 12 12 12 12 12 12 12 13 13 13 13 13 13 13 13 13 13 13 13 13 13 13 13 13 12 12 11 11 10 10 10 9 9 9 9 9 9 9 9 9 8 8 8
12 12 12 12 12 12 12 12 12 12 12 12 12 12 12 12 12 12 12 12 13 13 13 12 12 12 11 11 11 10 10 9 9 9 9 9 9 9 9 9 9 9 8 8
11 11 11 11 11 11 11 11 11 11 11 11 11 11 11 11 11 11 11 11 12 12 12 12 12 12 11 11 10 10 9 9 9 8 8 8 8 8 8 8 8 8 8 8
11 10 10 10 10 10 10 10 10 10 10 10 10 10 10 10 10 10 10 11 11 11 11 11 11 11 10 10 10 9 9 8 8 8 8 8 8 8 8 8 8 8 8 8
10 10 10 10 10 10 10 10 10 9 9 9 9 9 9 9 10 10 10 10 10 10 10 10 10 10 9 9 9 8 8 8 8 7 8 8 8 8 8 8 8 8 8 8
9 9 9 9 9 9 9 9 9 9 9 9 9 9 9 9 9 9 9 9 10 10 10 10 9 9 9 8 8 8 7 7 7 7 7 7 7 7 8 8 8 8 8 8
9 9 9 9 9 9 9 9 9 9 9 9 9 9 9 8 8 8 8 9 9 9 9 9 8 8 8 7 7 7 7 7 7 6 7 7 7 7 7 7 7 8 8 8
9 9 9 9 9 9 9 9 9 9 8 8 8 8 8 8 8 8 8 8 8 8 8 8 7 7 7 7 6 6 6 6 6 6 6 6 6 7 7 7 7 7 8 8
Wind_Speed
7 7 4 6 8 6 8 9 9 9 9 11 9 9 8 6 6 6 6 6 7 7 6 6 6 7 6 7 6 5 5 6 8 8 8 8 9 9 9 9 10 10 10 10
4 3 4 6 7 5 6 5 7 5 9 8 4 4 5 7 8 8 9 9 9 8 7 7 8 7 7 7 7 5 6 8 8 7 8 8 9 9 9 10 10 10 10 11
4 5 4 6 5 4 4 6 8 9 9 3 5 9 10 10 10 11 11 10 9 9 9 8 8 7 7 7 6 5 7 8 8 8 8 9 9 9 10 10 10 10 11 11
2 1 4 9 5 5 5 5 7 7 6 7 8 6 5 8 10 11 10 10 9 8 8 7 6 6 6 6 6 6 7 8 8 8 9 9 9 10 10 9 10 10 11 11
4 4 6 10 4 6 5 6 6 7 6 4 3 3 4 8 10 11 11 10 9 9 7 6 7 7 5 6 6 7 8 9 8 8 9 9 10 11 10 9 10 10 10 11
4 5 6 10 4 4 4 6 7 8 9 8 8 3 8 8 10 11 9 8 8 7 6 6 7 5 5 7 7 8 9 8 8 8 8 10 11 11 10 9 10 11 11 11
5 5 8 9 3 6 3 9 7 11 11 12 11 11 6 5 9 10 10 9 8 7 7 8 7 5 6 7 8 9 8 7 8 8 8 10 10 9 10 10 10 10 11 11
5 3 7 4 7 9 11 5 5 11 12 14 14 10 7 7 9 10 10 9 9 8 8 7 6 6 7 9 9 7 7 7 8 8 8 8 9 10 9 9 9 10 10 10
8 8 8 5 9 8 4 6 7 10 12 15 13 11 10 9 11 10 11 10 8 9 8 7 6 7 9 9 7 6 6 8 8 9 8 8 8 9 9 8 7 8 8 9
5 9 9 8 8 8 8 10 10 10 11 12 13 13 12 11 11 10 10 10 8 8 8 9 7 8 9 8 6 5 7 8 8 8 9 9 7 7 7 8 8 8 8 8
6 9 10 9 7 7 7 7 7 7 9 13 14 13 12 12 12 11 10 9 8 9 10 10 8 8 8 7 5 6 7 8 8 8 8 9 9 7 8 8 9 9 8 8
8 8 5 7 9 7 6 6 6 6 6 6 10 12 10 11 10 10 10 8 8 9 10 9 8 8 8 6 6 6 7 7 6 7 7 7 8 9 10 10 13 13 12 10
7 5 2 6 8 8 5 5 4 4 5 6 6 7 7 7 7 6 7 8 10 11 10 9 8 8 8 6 6 6 7 7 6 7 7 7 7 8 10 11 10 10 10 10
6 3 5 8 8 10 8 6 5 3 3 2 2 2 2 3 3 5 9 10 10 8 8 8 8 9 7 5 6 6 7 7 7 7 7 7 8 8 7 8 9 8 8 9
13 9 5 6 11 14 13 13 13 11 9 8 5 3 1 3 5 7 7 6 5 6 7 7 8 10 6 6 6 7 6 5 6 6 7 7 7 7 7 7 7 8 8 7
8 12 13 15 16 16 17 17 14 13 11 10 8 6 4 3 4 4 4 4 6 8 9 9 10 9 6 6 6 5 5 8 8 6 6 6 6 6 7 7 7 7 7 6
14 15 13 14 13 13 13 12 12 12 11 10 9 7 5 3 3 5 5 5 8 9 8 9 10 7 6 6 6 5 5 6 8 7 5 6 6 6 6 7 7 7 7 6
8 7 7 7 8 9 11 11 11 11 10 9 8 6 5 4 6 7 6 5 5 7 9 10 9 7 7 7 6 5 4 4 4 5 6 6 6 6 6 6 6 7 6 6
9 9 8 8 7 7 8 9 9 8 8 8 8 7 6 7 7 7 6 5 7 10 10 8 10 8 7 8 7 4 4 4 5 5 5 6 6 5 5 5 6 6 6 6
7 7 8 8 9 8 8 8 8 8 8 7 7 7 8 8 8 8 7 7 9 8 7 6 7 8 8 7 7 4 4 4 4 5 4 4 5 5 5 5 5 5 5 5
7 7 8 8 8 8 8 8 8 8 9 8 7 7 8 9 8 7 6 9 9 8 7 8 7 6 6 6 7 4 4 3 4 4 4 4 4 5 5 5 5 5 5 5
6 7 8 8 8 9 8 7 6 7 7 8 8 8 8 9 10 8 8 8 9 10 7 6 6 7 8 8 5 4 4 3 3 3 3 3 3 4 4 5 5 5 5 5
7 7 8 8 8 8 9 7 7 6 7 7 8 8 8 9 8 7 10 9 8 10 7 5 6 8 10 6 4 4 3 3 3 2 3 3 3 3 4 5 5 5 5 5
7 8 8 8 7 6 7 8 8 6 7 8 7 8 7 8 8 7 8 11 12 10 6 4 6 7 8 4 4 3 2 2 2 2 2 2 2 3 3 4 4 5 5 5
8 8 8 8 7 6 7 7 8 7 7 7 9 9 7 5 7 9 10 10 10 7 4 3 5 6 5 3 3 2 1 0 1 1 2 2 2 3 3 4 4 5 5 5
8 7 8 8 7 7 6 6 5 6 6 6 7 8 8 7 8 8 8 8 8 5 3 1 2 4 3 3 3 3 2 1 1 2 2 2 3 3 3 4 5 5 5 5
8 7 6 7 7 6 6 5 6 7 6 6 7 8 8 8 8 9 9 7 5 3 1 1 3 4 4 4 4 3 3 2 2 2 3 3 3 3 4 4 4 4 4 5
Wind_Direction
236 246 249 256 264 210 195 196 193 229 229 248 232 218 215 201 184 181 197 210 218 227 239 251 262 267 268 271 273 274 276 276 274 279 281 282 283 284 284 282 281 277 279 278
279 269 268 264 269 238 211 198 213 243 258 251 225 172 194 198 190 202 216 222 227 231 237 244 250 258 266 270 271 271 271 274 279 284 285 285 285 286 288 287 285 282 279 277
257 303 352 298 258 228 223 208 186 213 240 206 181 197 209 207 202 210 218 223 226 228 231 238 244 247 255 263 272 272 271 276 281 281 284 286 290 292 290 289 286 285 283 278
189 44 253 250 254 221 222 236 212 229 242 206 209 211 223 203 200 213 219 222 227 228 231 237 239 245 254 266 269 270 273 277 279 279 283 288 291 290 289 288 286 285 284 282
143 191 271 294 263 176 181 260 219 216 223 174 106 60 298 222 204 211 214 215 220 220 220 230 240 244 253 267 269 273 274 277 279 279 285 290 291 290 289 289 289 287 285 283
141 168 229 251 257 163 115 282 233 193 191 165 129 169 255 231 204 216 219 215 217 216 215 232 242 234 241 259 267 269 272 276 279 279 281 285 286 287 286 285 286 290 288 284
171 208 255 254 204 131 168 245 224 191 189 172 184 206 226 212 198 207 211 214 210 205 214 229 233 218 239 255 260 263 271 277 280 279 279 280 281 283 287 289 290 291 289 287
150 185 260 243 148 181 218 237 208 198 193 192 211 222 231 221 211 207 210 212 203 204 225 234 223 213 238 252 256 265 273 278 281 284 285 288 286 290 290 290 293 295 295 296
189 218 245 235 217 239 220 229 226 207 206 200 210 222 223 222 219 215 211 211 203 205 225 239 227 211 233 249 256 266 275 280 285 291 291 288 288 293 298 295 291 294 294 296
246 270 269 272 263 258 230 230 235 216 203 192 205 217 217 219 218 216 215 212 203 201 220 238 234 223 230 246 252 258 272 282 289 294 299 300 295 289 290 293 295 295 295 296
256 275 299 305 289 280 274 256 249 229 205 200 205 215 213 215 217 214 214 208 197 204 219 233 235 236 239 240 238 253 269 280 289 291 293 301 301 291 285 279 273 279 288 287
241 251 233 273 294 313 298 276 250 224 221 213 206 218 215 219 219 213 210 201 202 212 222 233 233 240 243 235 224 240 266 279 287 295 299 301 305 309 292 279 283 276 263 264
262 294 276 286 323 336 317 300 284 222 215 218 222 220 217 223 219 210 209 205 211 217 221 228 232 242 246 234 222 233 253 272 285 292 297 302 304 306 313 316 308 296 287 285
335 352 16 0 346 352 360 357 13 17 358 339 289 264 232 232 216 209 219 221 218 217 220 225 233 244 244 226 226 241 254 270 279 284 291 295 297 298 298 305 314 317 311 301
30 45 50 16 21 22 22 27 32 22 11 5 8 7 305 232 231 233 233 223 213 222 230 229 236 247 235 214 225 241 254 268 277 283 288 291 293 296 298 301 302 306 313 314
39 45 41 37 31 26 26 26 23 11 6 0 359 346 311 273 262 253 237 205 206 230 235 231 238 241 222 211 222 240 253 270 282 286 293 299 301 304 307 309 310 311 312 314
47 34 24 23 20 19 21 20 16 7 4 1 351 347 353 343 312 284 263 234 226 234 236 234 241 236 213 209 216 235 252 274 289 292 289 293 298 302 305 306 307 309 306 304
59 47 31 18 8 4 5 6 6 2 357 346 347 357 348 313 285 279 282 278 264 261 251 239 235 221 210 208 212 224 241 263 279 286 291 296 300 300 302 305 310 311 313 317
38 30 19 12 360 352 351 350 345 339 335 339 345 340 321 304 297 293 290 276 267 268 266 243 226 215 215 212 207 214 232 257 277 283 288 298 305 309 312 314 315 316 316 321
21 8 360 353 351 346 337 333 331 330 328 333 336 337 332 320 312 305 294 276 263 259 263 248 224 217 215 210 202 208 226 248 268 282 293 302 309 313 316 319 321 323 324 324
356 347 344 339 332 327 323 322 325 325 326 333 334 324 316 312 313 310 304 297 288 275 265 243 227 218 208 198 195 203 219 239 257 272 287 299 308 315 322 325 326 328 331 332
329 327 325 322 321 318 315 315 316 318 324 327 327 325 324 320 318 311 293 279 290 289 278 254 235 213 199 190 187 197 214 230 248 269 284 298 308 317 324 329 331 334 333 334
313 309 310 310 307 302 306 312 318 321 320 317 316 316 312 306 304 301 306 302 305 295 284 262 234 206 189 180 182 192 207 224 241 264 283 298 309 317 323 330 335 338 340 340
303 301 300 300 304 306 308 308 312 309 304 302 300 299 300 307 310 299 293 302 305 300 290 263 221 192 175 174 174 182 200 225 250 271 292 309 324 330 334 340 343 343 343 346
293 294 297 306 307 295 287 294 304 305 309 309 307 306 301 287 285 299 306 309 309 305 296 248 193 173 167 159 157 156 163 206 292 301 317 333 341 344 348 351 350 347 348 351
287 286 283 277 271 270 275 278 280 285 291 297 302 303 306 306 303 304 309 311 310 305 297 253 157 148 141 133 125 115 100 65 32 6 356 356 354 356 357 356 355 357 357 356
286 282 281 288 286 273 269 268 270 275 274 274 284 292 300 307 311 315 316 314 314 309 300 124 124 123 120 113 104 93 80 61 38 16 3 2 1 0 359 359 1 3 5 6
Height
1507 1502 1502 1502 1499 1501 1507 1508 1515 1508 1505 1494 1489 1489 1490 1492 1494 1497 1499 1500 1502 1502 1503 1502 1501 1500 1498 1496 1495 1493 1490 1488 1485 1482 1480 1477 1474 1471 1468 1465 1462 1459 1457 1454
1503 1498 1500 1500 1494 1493 1496 1498 1501 1499 1497 1485 1485 1487 1489 1490 1492 1494 1496 1498 1499 1499 1500 1499 1498 1497 1495 1493 1491 1489 1486 1484 1481 1478 1475 1472 1469 1466 1463 1459 1456 1453 1451 1448
1512 1503 1499 1504 1491 1488 1489 1488 1492 1496 1489 1483 1484 1485 1485 1487 1489 1491 1493 1495 1496 1496 1496 1495 1494 1493 1491 1489 1487 1485 1482 1480 1477 1474 1471 1468 1464 1461 1457 1453 1450 1447 1444 1442
1513 1506 1512 1500 1483 1483 1485 1483 1484 1483 1481 1481 1480 1482 1484 1485 1487 1488 1490 1492 1492 1493 1492 1492 1491 1489 1487 1486 1483 1481 1478 1476 1473 1470 1466 1463 1459 1456 1452 1448 1445 1441 1438 1435
1517 1515 1507 1492 1481 1481 1484 1483 1478 1479 1479 1480 1481 1482 1482 1482 1483 1485 1487 1488 1489 1489 1488 1488 1487 1485 1484 1482 1480 1477 1474 1472 1469 1465 1462 1458 1454 1451 1447 1443 1439 1436 1432 1429
1514 1512 1513 1492 1476 1476 1481 1486 1474 1475 1476 1478 1480 1487 1481 1478 1479 1481 1483 1484 1484 1485 1484 1483 1483 1481 1479 1478 1475 1473 1470 1467 1464 1461 1457 1453 1450 1446 1442 1438 1434 1430 1427 1424
1510 1510 1501 1478 1475 1477 1491 1487 1468 1469 1471 1473 1475 1475 1474 1474 1476 1477 1479 1480 1480 1480 1480 1480 1479 1477 1476 1474 1471 1469 1466 1463 1459 1456 1452 1449 1445 1441 1437 1433 1429 1426 1422 1419
1509 1508 1500 1472 1474 1478 1474 1465 1464 1464 1465 1467 1467 1469 1471 1471 1472 1473 1474 1475 1476 1476 1476 1476 1475 1473 1471 1469 1467 1465 1461 1458 1455 1452 1448 1444 1440 1437 1433 1429 1425 1420 1416 1413
1494 1489 1473 1469 1468 1465 1464 1463 1461 1461 1461 1462 1464 1465 1466 1467 1468 1469 1470 1471 1471 1471 1472 1471 1470 1469 1467 1465 1463 1460 1457 1454 1451 1447 1444 1440 1436 1432 1428 1424 1420 1416 1412 1408
1484 1475 1468 1465 1463 1461 1460 1458 1457 1457 1457 1458 1459 1460 1461 1463 1463 1464 1465 1466 1467 1467 1467 1467 1466 1464 1462 1461 1458 1456 1453 1450 1446 1443 1439 1436 1433 1429 1424 1420 1416 1411 1407 1403
1479 1471 1465 1462 1461 1459 1457 1455 1453 1453 1453 1453 1454 1455 1456 1457 1458 1459 1460 1461 1462 1462 1462 1462 1461 1460 1458 1456 1454 1451 1448 1445 1442 1438 1435 1432 1428 1425 1420 1416 1412 1407 1403 1399
1475 1466 1466 1463 1459 1456 1454 1451 1450 1449 1448 1449 1450 1451 1452 1453 1454 1455 1456 1457 1458 1458 1458 1458 1457 1455 1453 1452 1449 1447 1444 1441 1438 1434 1431 1428 1424 1421 1417 1413 1409 1404 1400 1396
1467 1464 1463 1461 1457 1453 1451 1449 1447 1446 1446 1446 1447 1448 1449 1449 1450 1451 1452 1453 1454 1454 1454 1454 1453 1451 1450 1448 1445 1442 1439 1437 1433 1430 1427 1424 1420 1416 1412 1409 1405 1401 1397 1393
1462 1460 1460 1459 1456 1452 1449 1447 1445 1445 1445 1445 1446 1446 1446 1447 1448 1448 1449 1450 1450 1450 1450 1449 1448 1447 1445 1443 1441 1438 1436 1433 1430 1427 1424 1421 1417 1414 1409 1405 1400 1397 1393 1390
1465 1463 1463 1461 1456 1452 1449 1447 1445 1444 1444 1444 1444 1444 1445 1445 1445 1445 1446 1447 1447 1447 1446 1445 1444 1442 1441 1438 1436 1434 1431 1429 1426 1423 1420 1417 1414 1411 1407 1403 1398 1394 1390 1387
1469 1466 1463 1460 1457 1455 1451 1449 1448 1447 1446 1445 1443 1443 1442 1442 1443 1443 1443 1443 1443 1442 1441 1440 1438 1437 1436 1434 1432 1429 1427 1425 1422 1419 1417 1414 1411 1408 1404 1400 1396 1392 1388 1385
1468 1467 1465 1464 1462 1459 1457 1455 1453 1450 1448 1445 1443 1442 1441 1440 1439 1439 1439 1438 1438 1436 1435 1434 1433 1432 1430 1429 1427 1425 1423 1421 1418 1416 1413 1410 1408 1404 1401 1398 1394 1391 1387 1384
1474 1473 1471 1469 1466 1463 1459 1457 1455 1452 1450 1447 1444 1441 1440 1438 1436 1434 1434 1433 1432 1430 1429 1428 1427 1426 1424 1423 1422 1420 1418 1416 1414 1412 1409 1407 1404 1402 1399 1396 1392 1389 1386 1383
1475 1473 1471 1469 1467 1464 1461 1458 1455 1453 1450 1447 1444 1441 1439 1436 1434 1432 1430 1428 1426 1424 1423 1422 1420 1419 1418 1417 1416 1415 1413 1412 1410 1408 1406 1404 1402 1399 1396 1394 1391 1387 1384 1381
1475 1473 1471 1469 1466 1463 1460 1457 1454 1451 1448 1445 1441 1438 1436 1433 1430 1427 1425 1422 1420 1418 1416 1415 1413 1412 1412 1411 1411 1410 1408 1407 1406 1404 1402 1401 1399 1396 1394 1392 1389 1386 1383 1380
1474 1472 1469 1466 1463 1461 1458 1455 1451 1448 1445 1442 1439 1436 1433 1430 1427 1423 1420 1416 1414 1412 1410 1408 1406 1406 1405 1405 1405 1404 1404 1403 1401 1400 1399 1397 1395 1394 1392 1390 1387 1385 1382 1379
1472 1469 1466 1463 1460 1457 1455 1452 1448 1445 1443 1440 1437 1433 1430 1426 1423 1419 1416 1413 1408 1406 1403 1401 1400 1399 1399 1399 1399 1399 1399 1398 1397 1397 1395 1394 1392 1391 1389 1388 1386 1383 1381 1378
1469 1466 1463 1460 1457 1454 1451 1449 1446 1443 1440 1437 1434 1431 1427 1424 1420 1415 1410 1407 1403 1400 1397 1395 1394 1393 1394 1394 1394 1395 1395 1394 1394 1393 1392 1391 1389 1388 1387 1385 1384 1382 1380 1377
1465 1462 1460 1457 1454 1451 1448 1446 1443 1440 1438 1435 1432 1428 1424 1420 1415 1412 1407 1402 1398 1394 1391 1389 1388 1388 1389 1389 1390 1391 1391 1391 1390 1390 1389 1388 1387 1386 1385 1383 1382 1381 1379 1377
1461 1458 1456 1453 1450 1448 1445 1442 1440 1437 1434 1431 1428 1425 1421 1416 1412 1407 1402 1397 1393 1390 1387 1386 1385 1384 1385 1385 1386 1387 1387 1387 1387 1386 1386 1385 1384 1383 1382 1381 1380 1379 1378 1376
1457 1454 1452 1449 1447 1444 1441 1438 1435 1433 1430 1426 1423 1420 1416 1412 1408 1403 1398 1393 1389 1386 1384 1382 1381 1381 1382 1383 1383 1384 1384 1384 1383 1383 1382 1382 1381 1380 1380 1379 1378 1377 1376 1375
1452 1449 1447 1444 1442 1439 1436 1434 1431 1428 1425 1422 1418 1415 1411 1407 1403 1398 1394 1389 1385 1382 1380 1379 1378 1378 1379 1380 1380 1381 1381 1381 1380 1380 1379 1379 1378 1378 1377 1377 1377 1376 1375 1374